Location: Alfords
(31.4624°N, 83.9238°W)
Time: 13:47:47
(UTC+00:00)

Envisat - Pass Details

Date: 24 September 2021
Orbit: 764 x 766 km, 98.2° (Epoch: 23 October)

Event Time Altitude Azimuth Distance (km) Brightness Sun altitude
Rises 09:39:27 0° 31° (NNE) 3,232 6.9 -23.2°
Reaches altitude 10° 09:42:23 10° 49° (NE) 2,301 6.3 -22.6°
Maximum altitude 09:46:01 20° 95° (E) 1,722 5.6 -21.8°
Drops below altitude 10° 09:49:39 10° 141° (SE) 2,291 5.8 -21.1°
Sets 09:52:32 0° 158° (SSE) 3,213 6.3 -20.5°
